TimePDT,TemperatureF,Dew PointF,Humidity,Sea Level PressureIn,VisibilityMPH,Wind Direction,Wind SpeedMPH,Gust SpeedMPH,PrecipitationIn,Events,Conditions,WindDirDegrees,DateUTC
12:15 AM,59.0,39.2,48,30.20,10.0,Calm,Calm,-,N/A,,Clear,0,2013-09-05 07:15:00
12:35 AM,53.6,39.2,58,30.19,10.0,Calm,Calm,-,N/A,,Clear,0,2013-09-05 07:35:00
12:55 AM,53.6,39.2,58,30.19,10.0,Calm,Calm,-,N/A,,Clear,0,2013-09-05 07:55:00
1:15 AM,53.6,39.2,58,30.19,10.0,ESE,4.6,-,N/A,,Clear,120,2013-09-05 08:15:00
1:35 AM,51.8,39.2,62,30.18,10.0,Calm,Calm,-,N/A,,Clear,0,2013-09-05 08:35:00
1:55 AM,51.8,39.2,62,30.18,10.0,Calm,Calm,-,N/A,,Clear,0,2013-09-05 08:55:00
2:15 AM,51.8,41.0,67,30.17,10.0,Calm,Calm,-,N/A,,Clear,0,2013-09-05 09:15:00
2:35 AM,53.6,39.2,58,30.17,10.0,Calm,Calm,-,N/A,,Clear,0,2013-09-05 09:35:00
2:55 AM,55.4,37.4,51,30.17,10.0,Calm,Calm,-,N/A,,Clear,0,2013-09-05 09:55:00
3:15 AM,53.6,37.4,54,30.17,10.0,West,4.6,-,N/A,,Clear,260,2013-09-05 10:15:00
3:35 AM,53.6,39.2,58,30.17,10.0,NW,3.5,-,N/A,,Clear,320,2013-09-05 10:35:00
3:55 AM,50.0,39.2,66,30.17,10.0,Calm,Calm,-,N/A,,Clear,0,2013-09-05 10:55:00
4:15 AM,48.2,37.4,66,30.17,10.0,Calm,Calm,-,N/A,,Clear,0,2013-09-05 11:15:00
4:35 AM,48.2,37.4,66,30.17,10.0,Calm,Calm,-,N/A,,Clear,0,2013-09-05 11:35:00
4:55 AM,50.0,37.4,62,30.16,10.0,ESE,3.5,-,N/A,,Clear,120,2013-09-05 11:55:00
5:15 AM,51.8,37.4,58,30.15,10.0,Calm,Calm,-,N/A,,Clear,0,2013-09-05 12:15:00
5:35 AM,48.2,37.4,66,30.15,10.0,SE,3.5,-,N/A,,Clear,130,2013-09-05 12:35:00
5:55 AM,51.8,37.4,58,30.15,10.0,South,8.1,-,N/A,,Clear,180,2013-09-05 12:55:00
6:15 AM,57.2,37.4,48,30.16,10.0,SSE,8.1,-,N/A,,Clear,160,2013-09-05 13:15:00
6:35 AM,55.4,37.4,51,30.16,10.0,South,8.1,-,N/A,,Clear,170,2013-09-05 13:35:00
6:50 AM,53.6,39.2,58,30.16,10.0,SSE,8.1,-,N/A,,Partly Cloudy,160,2013-09-05 13:50:00
7:50 AM,64.4,35.6,34,30.15,10.0,South,13.8,18.4,N/A,,Clear,180,2013-09-05 14:50:00
8:45 AM,68.0,35.6,30,30.15,10.0,SSW,18.4,25.3,N/A,,Clear,200,2013-09-05 15:45:00
9:55 AM,71.6,37.4,29,30.16,10.0,SSW,15.0,28.8,N/A,,Scattered Clouds,210,2013-09-05 16:55:00
10:45 AM,69.8,39.2,33,30.17,10.0,SSW,20.7,34.5,N/A,,Scattered Clouds,200,2013-09-05 17:45:00
11:45 AM,71.6,41.0,33,30.18,10.0,South,20.7,43.7,N/A,,Scattered Clouds,190,2013-09-05 18:45:00
12:45 PM,71.6,41.0,33,30.18,10.0,SSW,21.9,31.1,N/A,,Scattered Clouds,210,2013-09-05 19:45:00
1:55 PM,73.4,37.4,27,30.16,10.0,WSW,26.5,33.4,N/A,,Partly Cloudy,240,2013-09-05 20:55:00
2:45 PM,73.4,37.4,27,30.15,10.0,SW,21.9,36.8,N/A,,Partly Cloudy,220,2013-09-05 21:45:00
3:55 PM,73.4,37.4,27,30.14,10.0,WSW,24.2,29.9,N/A,,Partly Cloudy,240,2013-09-05 22:55:00
4:55 PM,69.8,33.8,27,30.15,10.0,SW,20.7,34.5,N/A,,Clear,220,2013-09-05 23:55:00
5:45 PM,68.0,33.8,28,30.15,10.0,SW,20.7,29.9,N/A,,Clear,220,2013-09-06 00:45:00
5:55 PM,68.0,33.8,28,30.15,10.0,SSW,17.3,26.5,N/A,,Clear,210,2013-09-06 00:55:00
6:15 PM,68.0,32.0,26,30.15,10.0,SW,16.1,28.8,N/A,,Clear,230,2013-09-06 01:15:00
6:35 PM,66.2,32.0,28,30.15,10.0,SW,9.2,20.7,N/A,,Clear,230,2013-09-06 01:35:00
6:55 PM,64.4,32.0,30,30.15,10.0,WSW,10.4,-,N/A,,Clear,240,2013-09-06 01:55:00
7:15 PM,64.4,33.8,32,30.16,10.0,SW,10.4,16.1,N/A,,Clear,220,2013-09-06 02:15:00
7:35 PM,60.8,33.8,36,30.16,10.0,SSW,11.5,-,N/A,,Clear,210,2013-09-06 02:35:00
7:55 PM,59.0,33.8,39,30.17,10.0,WSW,6.9,-,N/A,,Clear,240,2013-09-06 02:55:00
8:15 PM,59.0,35.6,42,30.18,10.0,SW,8.1,-,N/A,,Clear,230,2013-09-06 03:15:00
8:35 PM,59.0,35.6,42,30.18,10.0,WSW,8.1,-,N/A,,Clear,250,2013-09-06 03:35:00
8:55 PM,59.0,37.4,45,30.19,10.0,WSW,10.4,16.1,N/A,,Clear,240,2013-09-06 03:55:00
9:15 PM,59.0,37.4,45,30.19,10.0,WSW,6.9,-,N/A,,Clear,240,2013-09-06 04:15:00
9:35 PM,57.2,37.4,48,30.20,10.0,Calm,Calm,-,N/A,,Clear,0,2013-09-06 04:35:00
9:55 PM,57.2,35.6,44,30.20,10.0,NW,3.5,-,N/A,,Clear,320,2013-09-06 04:55:00
10:15 PM,55.4,33.8,44,30.20,10.0,Calm,Calm,-,N/A,,Clear,0,2013-09-06 05:15:00
10:35 PM,53.6,33.8,47,30.21,10.0,NNW,3.5,-,N/A,,Clear,340,2013-09-06 05:35:00
10:55 PM,51.8,33.8,50,30.21,10.0,NNE,3.5,-,N/A,,Clear,30,2013-09-06 05:55:00
11:15 PM,51.8,32.0,47,30.21,10.0,NNE,3.5,-,N/A,,Clear,30,2013-09-06 06:15:00
11:35 PM,51.8,33.8,50,30.22,10.0,NNE,5.8,-,N/A,,Clear,30,2013-09-06 06:35:00
11:55 PM,48.2,33.8,58,30.22,10.0,North,4.6,-,N/A,,Clear,10,2013-09-06 06:55:00